[[{"header":{"parameterUnit":"m.s-1","parameterCategory":1,"la1":30.2991,"la2":30.254,"lo1":-89.0895,"lo2":-89.0444,"dy":0.0017,"dx":0.0017,"nx":28,"ny":28,"refTime":"2024-12-20T03:00:00:Z","depth":0,"parameterNumber":2,"parameterNumberName":"U-component_of_WINDS"},"data":[0,0,0,0,0,0,0,0,0,0,0,0,0,0,0,0,0,0,0,0,0,0,0,0,0,0,0,0,0,0,0,0,0,0,0,0,0,0,0,0,0,0,0,0,0,0,0,0,0,0,0,0,0,0,0,0,0,0,0.0888,0.0888,0,0.088,0.088,0.088,0.0877,0.0877,0.0877,0.0877,0.0868,0.0868,0.0868,0,0,0,0,0,0,0,0,0,0,0,0,0,0.09,0.09,0.0888,0.0888,0.0888,0.088,0.088,0.088,0.0877,0.0877,0.0877,0.0877,0.0868,0.0868,0.0868,0,0,0,0,0,0,0,0,0,0,0,0,0,0.0894,0.09,0.0888,0.0885,0.0885,0.088,0.088,0.088,0.0877,0.0877,0.0877,0.0877,0.0868,0.0868,0.0868,0.0865,0,0,0.0867,0.0866,0,0,0,0,0,0,0,0,0.0894,0.0894,0.0886,0.0885,0.0885,0.0879,0.0882,0.0875,0.0877,0.088,0.0877,0.0877,0.0872,0.0871,0.087,0.0865,0.0865,0.0867,0.0866,0.0866,0.0866,0,0,0,0,0,0,0,0.0895,0.0894,0.0885,0.0886,0.0885,0.0884,0.0884,0.088,0.0876,0.0879,0.0879,0.0878,0.0872,0.087,0.087,0.0865,0.0867,0.0866,0.0866,0.0866,0.0859,0.0859,0,0,0,0,0,0,0.0896,0.0894,0.0885,0.0885,0.089,0.0884,0.0883,0.0881,0.0876,0.0875,0.0878,0.0878,0.0871,0.087,0.0869,0.0867,0.0866,0.0866,0.0866,0.0859,0.0859,0.0859,0,0,0,0,0,0,0.0896,0.0895,0.0886,0.0889,0.0888,0.0884,0.0882,0.0881,0.0879,0.0875,0.0874,0.0877,0.0871,0.087,0.0867,0.0867,0.0866,0.0865,0.0859,0.0859,0.0859,0.0862,0,0,0,0,0,0,0.0896,0.0895,0.0894,0.0889,0.0888,0.0883,0.0882,0.0881,0.0879,0.0879,0.0874,0.0873,0.0871,0.0867,0.0866,0.0866,0.0865,0.0859,0.0859,0.0859,0.0862,0.0862,0.0862,0,0,0,0,0,0.0897,0.0895,0.0894,0.0893,0.0887,0.0883,0.0882,0.0879,0.0879,0.0878,0.0875,0.0873,0.0867,0.0867,0.0866,0.0866,0.0859,0.0859,0.0859,0.0862,0.0862,0.0862,0,0,0,0,0,0,0.0899,0.0894,0.0893,0.0889,0.0887,0.0882,0.0881,0.088,0.0877,0.0876,0.0873,0.0872,0.0869,0.0867,0.0867,0.0864,0.0863,0.0862,0.0865,0.0865,0.0866,0.0866,0.0865,0,0,0,0,0,0.0899,0.0896,0.0892,0.089,0.0888,0.0885,0.0883,0.0882,0.0878,0.0877,0.0874,0.0871,0.0869,0.0867,0.0864,0.0862,0.0861,0.0861,0.0861,0.0861,0.0861,0.086,0.0861,0.0859,0.0859,0.0859,0,0,0.0899,0.0896,0.0894,0.089,0.0888,0.0885,0.0884,0.0881,0.088,0.0877,0.0874,0.0872,0.0868,0.0866,0.0864,0.0864,0.0862,0.0861,0.0862,0.0861,0.0861,0.0861,0.0861,0.0859,0.0859,0.0859,0,0,0.0897,0.0895,0.0893,0.0891,0.0888,0.0886,0.0885,0.0881,0.088,0.0877,0.0875,0.0873,0.0869,0.0867,0.0865,0.0865,0.0863,0.0864,0.0865,0.0864,0.0864,0.0865,0.0865,0.0865,0.0864,0.0864,0.0864,0,0.0898,0.0894,0.0892,0.089,0.0888,0.0886,0.0884,0.0882,0.0878,0.0877,0.0877,0.0872,0.0869,0.0866,0.0867,0.0865,0.0865,0.0864,0.0865,0.0865,0.0865,0.0865,0.0865,0.0864,0.0864,0.0864,0.0864,0,0.0895,0.0893,0.0891,0.0888,0.0886,0.0884,0.0882,0.0881,0.0879,0.0878,0.0875,0.0873,0.087,0.0869,0.0867,0.0867,0.0866,0.0865,0.0864,0.0865,0.0865,0.0865,0.0864,0.0864,0.0864,0.0864,0,0,0.0893,0.089,0.089,0.0889,0.0886,0.0884,0.0882,0.088,0.0879,0.0877,0.0875,0.0872,0.0872,0.087,0.0868,0.0868,0.0869,0.0867,0.0867,0.0868,0.0868,0.0869,0.0869,0.0868,0.0868,0.0868,0.0868,0,0.0892,0.0889,0.0887,0.0885,0.0883,0.0882,0.0881,0.0879,0.0878,0.0876,0.0875,0.0873,0.0872,0.0871,0.087,0.0868,0.0869,0.0868,0.0867,0.0867,0.0867,0.0869,0.087,0.087,0.0869,0.0869,0.0869,0,0.0889,0.0888,0.0885,0.0884,0.0883,0.0882,0.088,0.0879,0.0877,0.0876,0.0875,0.0873,0.0872,0.0872,0.087,0.087,0.0869,0.0869,0.0869,0.0868,0.0867,0.0869,0.0871,0.0871,0.0869,0.0869,0.0869,0,0.0889,0.0886,0.0885,0.0884,0.0882,0.0881,0.088,0.0879,0.0878,0.0876,0.0876,0.0874,0.0873,0.0872,0.0871,0.087,0.087,0.0869,0.0869,0.0869,0.0869,0.0869,0.087,0.0868,0.0868,0.0868,0.0868,0,0.0887,0.0886,0.0885,0.0884,0.0883,0.0881,0.088,0.0879,0.0878,0.0877,0.0876,0.0875,0.0873,0.0873,0.0871,0.0871,0.087,0.087,0.087,0.087,0.087,0.0869,0.0869,0.0868,0.0868,0.0868,0.0868,0,0.0887,0.0886,0.0884,0.0883,0.0882,0.0881,0.088,0.088,0.0879,0.0878,0.0877,0.0876,0.0875,0.0874,0.0872,0.0872,0.0871,0.0871,0.0872,0.0872,0.0872,0.0872,0.0874,0.0874,0.0871,0.0871,0.0871,0,0.0885,0.0885,0.0883,0.0883,0.0882,0.0881,0.0881,0.088,0.0879,0.0878,0.0878,0.0877,0.0876,0.0875,0.0874,0.0873,0.0872,0.0873,0.0872,0.0873,0.0873,0.0873,0.0873,0.0873,0.0873,0.0873,0.0873,0,0.0884,0.0884,0.0883,0.0882,0.0882,0.0881,0.088,0.088,0.0879,0.0879,0.0878,0.0878,0.0877,0.0876,0.0875,0.0875,0.0874,0.0874,0.0874,0.0874,0.0875,0.0875,0.0872,0.0873,0.0873,0.0873,0.0873,0.0873,0.0883,0.0883,0.0882,0.0881,0.0881,0.0881,0.088,0.088,0.0879,0.0879,0.0878,0.0878,0.0878,0.0877,0.0876,0.0876,0.0876,0.0876,0.0876,0.0876,0.0876,0.0875,0.0876,0.0876,0.0876,0.0876,0.0876,0,0.0882,0.0882,0.0881,0.0881,0.088,0.088,0.088,0.088,0.088,0.0879,0.0879,0.0879,0.0878,0.0878,0.0878,0.0878,0.0878,0.0878,0.0878,0.0878,0.0876,0.0876,0.0878,0.0878,0.0878,0.0878,0.0878,0.0878,0.0881,0.088,0.088,0.088,0.088,0.088,0.088,0.088,0.088,0.088,0.088,0.0879,0.0879,0.0879,0.0879,0.0879,0.0879,0.088,0.088,0.0878,0.0878,0.0878,0.0878,0.088,0.088,0.0881,0.0881,0.0881]},{"header":{"parameterUnit":"m.s-1","parameterCategory":1,"la1":30.2991,"la2":30.254,"lo1":-89.0895,"lo2":-89.0444,"dy":0.0017,"dx":0.0017,"nx":28,"ny":28,"refTime":"2024-12-20T03:00:00:Z","depth":0,"parameterNumber":3,"parameterNumberName":"V-component_of_WINDS"},"data":[0,0,0,0,0,0,0,0,0,0,0,0,0,0,0,0,0,0,0,0,0,0,0,0,0,0,0,0,0,0,0,0,0,0,0,0,0,0,0,0,0,0,0,0,0,0,0,0,0,0,0,0,0,0,0,0,0,0,-5.2519,-5.252,0,-5.262,-5.2621,-5.2623,-5.2617,-5.2615,-5.2614,-5.2612,-5.2709,-5.2713,-5.2717,0,0,0,0,0,0,0,0,0,0,0,0,0,-5.2316,-5.232,-5.2519,-5.252,-5.2522,-5.262,-5.2621,-5.2623,-5.2617,-5.2615,-5.2613,-5.2612,-5.2708,-5.2713,-5.2718,0,0,0,0,0,0,0,0,0,0,0,0,0,-5.2409,-5.2321,-5.2519,-5.2531,-5.2533,-5.262,-5.2622,-5.2623,-5.2617,-5.2615,-5.2613,-5.2611,-5.2707,-5.2712,-5.2718,-5.2798,0,0,-5.2736,-5.2739,0,0,0,0,0,0,0,0,-5.2404,-5.2417,-5.2528,-5.253,-5.2532,-5.2604,-5.2585,-5.2682,-5.2618,-5.2585,-5.2612,-5.261,-5.2676,-5.2684,-5.2707,-5.2803,-5.2807,-5.2737,-5.274,-5.2743,-5.2745,0,0,0,0,0,0,0,-5.2397,-5.2412,-5.2559,-5.2529,-5.2532,-5.2529,-5.254,-5.2604,-5.2641,-5.2588,-5.2587,-5.26,-5.2676,-5.2702,-5.271,-5.2808,-5.2737,-5.2742,-5.2746,-5.2748,-5.2976,-5.2978,0,0,0,0,0,0,-5.2389,-5.2407,-5.2556,-5.2562,-5.2462,-5.2535,-5.2547,-5.2583,-5.264,-5.2647,-5.2602,-5.2599,-5.2693,-5.2703,-5.2713,-5.2812,-5.2743,-5.2748,-5.2752,-5.2973,-5.2976,-5.2979,0,0,0,0,0,0,-5.2385,-5.2402,-5.2552,-5.2485,-5.2503,-5.2541,-5.2581,-5.2586,-5.2611,-5.2651,-5.2657,-5.2621,-5.2691,-5.2705,-5.2778,-5.2815,-5.2751,-5.2756,-5.297,-5.2974,-5.2978,-5.3009,0,0,0,0,0,0,-5.2379,-5.2401,-5.2433,-5.2485,-5.2507,-5.2616,-5.2583,-5.259,-5.2622,-5.262,-5.2671,-5.2677,-5.2691,-5.2769,-5.2784,-5.2822,-5.2761,-5.2967,-5.2972,-5.2976,-5.3005,-5.3013,-5.3021,0,0,0,0,0,-5.2372,-5.2436,-5.2434,-5.2452,-5.2548,-5.2618,-5.2631,-5.2647,-5.2625,-5.2657,-5.2683,-5.2675,-5.2809,-5.2777,-5.2793,-5.2834,-5.2965,-5.2971,-5.2976,-5.3001,-5.3012,-5.302,0,0,0,0,0,0,-5.2384,-5.2443,-5.2442,-5.2525,-5.2567,-5.2617,-5.2658,-5.2657,-5.2704,-5.27,-5.2716,-5.2728,-5.2802,-5.2825,-5.2788,-5.2915,-5.2884,-5.2893,-5.2897,-5.2907,-5.2915,-5.2908,-5.2766,0,0,0,0,0,-5.2396,-5.2451,-5.2499,-5.2567,-5.2589,-5.262,-5.2651,-5.2661,-5.2704,-5.2721,-5.2752,-5.2792,-5.2843,-5.2876,-5.2925,-5.3008,-5.3019,-5.3044,-5.3052,-5.3058,-5.3066,-5.3112,-5.3124,-5.2997,-5.2997,-5.2997,0,0,-5.2422,-5.2461,-5.2494,-5.2571,-5.2604,-5.2659,-5.2635,-5.2693,-5.2733,-5.2729,-5.2801,-5.2825,-5.2871,-5.295,-5.2986,-5.2971,-5.3103,-5.3065,-5.307,-5.3074,-5.3119,-5.3131,-5.3142,-5.3001,-5.3001,-5.3,0,0,-5.2498,-5.2533,-5.2595,-5.263,-5.2683,-5.2703,-5.2718,-5.2769,-5.2786,-5.2859,-5.2857,-5.2904,-5.2992,-5.3026,-5.3054,-5.3145,-5.314,-5.316,-5.3202,-5.3247,-5.3257,-5.3266,-5.3299,-5.331,-5.3168,-5.3168,-5.3168,0,-5.2523,-5.2607,-5.2626,-5.2687,-5.272,-5.2722,-5.2784,-5.2816,-5.2881,-5.2904,-5.2887,-5.2999,-5.3029,-5.3117,-5.3139,-5.3162,-5.3179,-5.3154,-5.3254,-5.3263,-5.3272,-5.3303,-5.3316,-5.317,-5.317,-5.317,-5.3169,0,-5.2636,-5.2695,-5.2738,-5.2804,-5.2843,-5.2903,-5.293,-5.2967,-5.2973,-5.2995,-5.307,-5.3108,-5.3165,-5.3186,-5.3192,-5.3275,-5.3264,-5.3251,-5.322,-5.3286,-5.3316,-5.3328,-5.3173,-5.3172,-5.3172,-5.3171,0,0,-5.2721,-5.2799,-5.2814,-5.2845,-5.2904,-5.2948,-5.3009,-5.3068,-5.3099,-5.3144,-5.3195,-5.327,-5.3259,-5.3291,-5.3301,-5.334,-5.3411,-5.3322,-5.3323,-5.3338,-5.3505,-5.3516,-5.3529,-5.3408,-5.3411,-5.3413,-5.3502,0,-5.2803,-5.2913,-5.2933,-5.3029,-5.3083,-5.3086,-5.3139,-5.318,-5.3203,-5.3251,-5.3275,-5.3329,-5.3309,-5.3329,-5.3368,-5.3394,-5.3445,-5.3388,-5.3455,-5.3457,-5.3444,-5.3545,-5.3556,-5.3638,-5.3514,-5.3516,-5.3517,0,-5.2913,-5.2965,-5.3067,-5.312,-5.3144,-5.3191,-5.3248,-5.3294,-5.3341,-5.3354,-5.3392,-5.3397,-5.346,-5.3426,-5.3512,-5.3473,-5.3501,-5.3518,-5.3522,-5.3529,-5.3491,-5.3555,-5.3665,-5.3677,-5.3536,-5.3534,-5.3533,0,-5.2966,-5.306,-5.3134,-5.316,-5.3224,-5.3257,-5.3285,-5.333,-5.3365,-5.3413,-5.3436,-5.349,-5.352,-5.3561,-5.358,-5.3554,-5.3665,-5.3633,-5.3677,-5.3677,-5.37,-5.3699,-5.3817,-5.3718,-5.3718,-5.3718,-5.3718,0,-5.3056,-5.3118,-5.3159,-5.3204,-5.3274,-5.3296,-5.3364,-5.3391,-5.3431,-5.3481,-5.3485,-5.3531,-5.3555,-5.3604,-5.3619,-5.3688,-5.3701,-5.3713,-5.3716,-5.3713,-5.3712,-5.3732,-5.3727,-5.3721,-5.372,-5.372,-5.3719,0,-5.3126,-5.3156,-5.3237,-5.3292,-5.3307,-5.3357,-5.3403,-5.3446,-5.347,-5.3533,-5.3548,-5.3584,-5.3642,-5.3666,-5.3737,-5.3747,-5.3827,-5.3825,-5.3812,-5.3813,-5.3856,-5.3852,-5.3991,-5.4011,-5.3899,-5.39,-5.3901,0,-5.3182,-5.323,-5.3292,-5.3327,-5.3357,-5.3413,-5.3449,-5.3472,-5.351,-5.3568,-5.3604,-5.3664,-5.3712,-5.3805,-5.3836,-5.389,-5.3891,-5.3936,-5.3898,-5.3894,-5.3892,-5.3889,-5.3894,-5.3942,-5.3944,-5.3944,-5.3945,0,-5.3277,-5.329,-5.3344,-5.3404,-5.3448,-5.3495,-5.3541,-5.3569,-5.3599,-5.3641,-5.3702,-5.374,-5.3814,-5.3873,-5.393,-5.3956,-5.3956,-5.3957,-5.397,-5.3967,-5.3958,-5.3964,-5.3831,-5.3953,-5.3953,-5.3952,-5.3952,-5.3951,-5.3342,-5.3387,-5.3438,-5.3498,-5.3536,-5.3579,-5.3624,-5.3654,-5.3706,-5.377,-5.378,-5.3846,-5.3892,-5.3968,-5.3998,-5.4048,-5.4037,-5.4055,-5.406,-5.4065,-5.4068,-5.395,-5.4058,-5.4058,-5.4058,-5.4058,-5.4058,0,-5.3439,-5.3473,-5.3528,-5.3594,-5.3642,-5.364,-5.3691,-5.373,-5.3789,-5.3833,-5.3882,-5.3953,-5.4011,-5.4047,-5.4104,-5.4138,-5.4139,-5.4152,-5.415,-5.4156,-5.4075,-5.4058,-5.4151,-5.4151,-5.4151,-5.4151,-5.415,-5.415,-5.3495,-5.3571,-5.359,-5.3684,-5.3716,-5.3783,-5.3813,-5.3853,-5.3889,-5.3969,-5.4018,-5.4042,-5.4083,-5.4144,-5.4196,-5.4205,-5.4226,-5.424,-5.4249,-5.4172,-5.4162,-5.4153,-5.4137,-5.4245,-5.4245,-5.4326,-5.4327,-5.4327]}]]